Theta_e
313 314 314 313 311 309 305 301 294 308 311 297 297 292 294 296 295 296 294 294 291 289 289 287 288 288 293 301 299 293 299 295 294 298 305 310 307 303 300 296 291 293 292 296
314 314 313 312 311 310 304 296 298 308 305 291 290 294 294 296 294 293 293 291 293 292 289 285 289 291 298 300 297 294 297 292 289 295 300 304 304 304 304 299 297 293 292 295
313 314 313 312 311 310 305 298 292 297 300 299 292 290 291 291 297 295 294 292 293 291 288 290 288 290 296 298 298 305 304 294 292 289 296 300 300 304 304 301 295 295 298 297
313 313 313 312 311 310 305 299 293 295 288 290 291 292 291 290 290 295 296 293 292 290 286 288 288 292 292 295 301 299 295 290 295 298 303 304 304 305 304 301 301 298 299 301
313 313 313 312 312 310 302 295 295 295 291 293 291 291 289 289 292 292 290 290 291 290 286 288 284 291 290 290 295 293 294 289 295 297 303 304 304 307 306 305 304 303 302 302
313 313 313 312 312 309 302 303 301 295 291 290 289 289 291 291 293 294 294 293 292 289 291 294 293 294 294 292 292 290 290 290 290 291 301 301 297 304 306 305 307 305 301 304
313 313 313 312 312 311 307 306 299 291 286 289 289 291 292 291 292 291 294 295 292 295 299 298 296 294 293 293 293 295 290 290 291 290 297 289 301 311 311 307 308 309 307 311
311 311 312 312 312 312 308 308 298 292 287 290 290 291 292 293 295 294 294 296 299 299 296 289 286 287 289 292 294 293 295 292 288 288 293 298 305 306 305 304 308 313 315 317
311 312 313 313 313 312 310 308 303 296 289 289 293 291 292 289 291 292 294 300 301 298 291 289 283 282 287 288 291 294 295 295 290 292 289 291 297 304 309 310 301 313 313 316
312 312 313 313 313 313 311 307 305 298 290 293 294 290 291 294 293 289 293 294 294 299 291 286 284 285 292 286 286 288 289 291 288 290 290 296 300 304 313 300 301 310 310 311
311 312 312 313 313 313 310 307 307 299 293 295 298 298 295 295 294 289 294 293 294 293 288 288 287 287 289 289 291 289 289 288 289 290 290 288 303 303 297 304 310 308 309 309
311 312 312 312 313 313 312 305 308 307 297 297 302 302 303 302 300 296 296 293 293 295 290 290 290 287 290 288 285 294 287 291 288 291 288 299 302 302 305 305 304 308 307 308
311 312 313 313 313 313 312 307 305 302 297 297 298 299 305 306 305 305 294 297 298 295 298 292 290 287 291 286 288 290 293 297 291 291 296 298 300 303 303 304 303 306 306 307
312 312 313 313 313 312 312 306 306 304 298 292 297 307 302 307 307 305 305 301 301 301 298 292 290 288 293 288 290 289 293 293 290 290 294 295 299 300 301 303 305 306 307 307
312 312 313 313 312 312 313 309 307 309 300 293 295 302 304 305 304 303 304 302 300 296 293 291 289 292 290 291 291 290 293 291 288 287 293 292 293 298 301 300 301 303 305 306
312 312 312 312 313 311 309 301 307 309 307 297 292 303 302 304 303 300 301 301 299 297 293 292 293 297 292 287 285 292 295 295 295 292 295 295 296 298 300 299 301 302 304 306
312 312 312 313 311 311 305 302 306 309 308 298 293 296 301 303 301 299 298 300 297 296 293 289 289 290 292 287 284 291 294 297 298 301 301 299 301 297 302 302 303 304 306 306
312 312 311 309 308 306 306 307 309 310 303 299 293 295 298 302 298 295 299 295 295 294 292 292 289 290 288 284 290 294 297 297 297 300 304 306 306 305 304 303 302 301 302 304
311 312 311 311 309 308 306 309 309 310 303 296 296 293 293 301 299 297 295 295 289 295 289 290 289 286 285 290 293 293 296 296 295 300 301 303 305 304 303 302 302 301 301 304
312 310 310 306 309 310 310 305 302 301 302 302 292 300 297 300 299 296 293 293 291 288 292 293 288 285 297 299 299 298 299 299 298 297 297 299 300 303 304 301 302 303 303 305
310 310 311 309 310 308 304 304 303 307 297 301 299 300 301 304 297 297 299 295 294 289 293 292 289 287 295 300 300 300 301 300 299 300 302 302 301 301 304 306 304 304 305 304
311 310 318 312 307 305 303 301 305 304 301 307 305 304 305 305 305 297 300 297 297 290 298 290 285 293 298 299 299 300 301 301 300 301 300 301 301 301 302 303 307 308 310 311
318 314 312 309 306 296 295 291 298 298 302 302 303 306 309 308 306 301 301 297 294 299 290 285 291 297 299 299 300 298 301 302 302 301 301 300 299 301 300 301 303 306 306 308
312 310 293 302 302 303 301 299 299 302 302 302 304 308 305 308 303 301 295 299 295 288 284 286 293 297 299 300 300 298 298 301 301 301 301 299 298 298 299 300 302 302 301 304
311 309 294 301 305 304 304 304 303 304 305 304 304 307 306 302 299 299 296 292 287 290 287 292 297 300 300 300 298 299 298 300 300 302 300 302 300 298 297 299 301 301 301 300
314 312 305 306 303 302 302 303 301 305 305 305 306 302 298 296 296 293 290 289 287 292 297 299 301 300 300 301 298 299 300 301 301 301 301 301 301 300 299 299 299 300 300 299
311 306 309 308 305 303 304 305 303 307 302 299 300 294 293 299 292 291 296 291 292 295 297 301 303 301 302 301 299 300 301 302 301 302 302 302 301 303 300 297 298 299 300 300
Wind_Speed
19 20 20 19 20 21 11 6 6 11 14 7 6 6 14 17 15 10 9 7 9 10 13 11 14 19 16 21 21 22 18 11 8 29 20 15 18 18 11 12 13 4 5 11
18 19 19 18 17 17 7 7 8 7 12 6 8 13 18 19 15 13 12 10 8 4 13 8 10 13 14 15 17 11 16 7 8 12 12 20 22 22 20 7 7 10 8 11
18 18 17 16 15 17 7 5 5 6 6 9 11 13 11 19 22 18 4 4 6 8 18 10 9 6 7 16 19 27 21 14 16 12 13 6 8 20 22 17 8 8 12 5
18 17 16 14 14 15 5 3 4 6 6 9 15 12 13 15 13 14 12 3 6 4 9 11 7 6 16 8 12 14 13 14 15 20 21 14 15 22 23 21 18 13 10 9
19 18 16 13 13 13 3 5 2 3 6 11 15 11 8 16 12 15 13 14 11 4 4 6 19 9 7 3 7 13 18 12 18 12 12 11 11 15 29 22 21 14 10 11
19 18 15 13 11 4 3 1 3 2 3 6 8 6 9 15 19 10 18 18 18 11 16 14 24 10 11 10 9 11 21 12 11 6 6 5 6 11 8 19 19 20 15 9
19 18 16 13 11 6 3 1 2 2 4 5 7 15 18 16 16 18 20 18 16 11 20 12 16 14 13 14 13 7 20 20 5 6 5 2 7 7 10 9 11 4 9 5
21 19 17 14 11 11 4 2 3 3 4 6 11 12 9 17 14 13 17 16 4 11 12 10 15 10 12 17 18 16 17 16 6 3 4 5 7 13 11 4 14 23 18 15
19 18 16 15 12 11 5 3 3 2 1 4 8 4 10 10 8 9 8 12 14 4 4 3 3 4 4 6 3 20 16 12 3 4 4 2 19 28 30 16 11 19 20 22
19 18 16 15 12 11 4 2 5 3 2 4 3 4 4 6 5 5 11 17 10 5 3 4 2 2 8 5 10 1 11 5 7 6 4 6 17 25 18 10 5 12 16 17
18 16 15 14 12 11 3 2 8 5 3 4 7 6 7 6 4 2 9 7 4 5 8 5 4 3 5 4 8 11 8 6 2 4 2 4 16 14 15 5 4 7 9 12
17 16 14 13 11 9 4 2 3 4 2 3 4 12 13 13 12 6 3 3 6 1 4 4 4 6 2 11 6 7 5 5 5 2 4 13 18 5 18 11 11 9 7 8
16 15 14 12 8 5 4 2 2 3 1 4 4 3 8 8 12 8 1 1 5 5 5 5 4 6 9 5 2 11 13 3 5 12 10 17 22 9 17 17 19 19 7 7
16 14 12 9 4 2 6 2 3 1 2 1 1 11 6 7 8 8 6 7 5 6 5 3 3 4 8 5 6 3 7 9 14 11 13 22 14 18 18 21 21 20 23 11
15 14 11 6 0 5 4 3 3 1 0 1 4 6 3 5 6 7 8 6 3 3 3 3 3 4 5 3 5 3 11 11 6 13 23 18 27 26 23 22 22 22 19 18
13 11 5 2 5 5 2 2 1 2 1 1 2 1 4 6 7 9 8 4 3 2 3 3 3 6 5 6 5 5 14 16 19 21 18 25 31 27 28 22 21 20 20 18
9 6 4 3 3 2 1 2 3 5 2 1 2 0 1 2 3 3 3 5 3 3 2 2 2 3 4 2 3 15 21 21 24 19 16 18 21 16 11 14 18 17 16 18
5 3 4 7 12 9 3 3 4 2 1 1 1 1 3 1 2 2 2 2 2 2 2 1 1 3 2 3 5 20 14 22 25 25 19 16 13 15 16 12 15 18 16 12
1 1 3 2 3 0 3 6 3 4 3 1 1 1 1 4 2 2 1 1 0 1 1 1 2 1 1 10 9 21 24 20 25 23 19 19 10 15 14 11 14 16 13 12
4 1 3 2 3 12 8 2 3 4 5 2 2 1 2 3 3 4 3 3 2 2 2 4 1 2 6 10 4 14 19 21 26 20 20 17 17 14 13 11 10 11 11 11
3 3 0 4 6 3 2 3 4 3 2 5 5 6 1 5 4 3 4 3 4 2 3 1 2 3 12 13 12 11 14 19 23 23 17 16 17 16 14 9 8 8 7 7
4 4 2 4 3 3 4 3 4 3 4 3 3 6 5 3 3 2 4 3 5 3 4 3 3 6 12 12 11 13 12 14 17 21 24 23 23 22 21 20 12 7 8 6
4 4 5 4 2 4 3 2 5 4 4 7 6 2 2 2 4 4 3 2 4 4 4 3 3 8 10 11 9 11 11 9 12 16 18 22 23 25 23 21 18 15 16 12
5 3 7 3 1 2 4 7 6 7 9 10 7 3 4 4 3 3 4 4 6 4 4 2 5 9 9 9 10 7 12 11 10 13 15 17 19 20 23 22 20 20 21 16
3 1 2 4 6 8 8 7 7 8 9 10 4 1 2 3 3 4 5 4 5 3 2 3 5 7 7 8 10 8 10 8 9 8 11 11 14 17 19 21 20 20 20 21
3 2 6 6 7 7 7 8 8 10 9 8 4 4 4 5 3 4 6 4 3 4 1 4 4 5 7 5 9 10 6 6 6 8 6 9 8 10 12 15 17 18 19 20
2 2 5 4 5 5 5 6 7 8 7 7 4 6 6 2 5 4 4 4 5 5 6 3 2 3 6 5 7 9 6 5 6 5 6 4 6 6 7 11 9 11 12 11
Wind_Direction
328 329 330 336 334 339 336 303 314 319 334 327 310 359 349 337 336 308 335 345 346 345 334 319 312 303 292 330 340 322 300 290 274 241 250 244 212 213 203 199 226 218 191 256
325 326 329 334 335 345 319 304 279 359 344 18 356 343 336 323 350 20 28 5 349 22 312 296 287 322 323 325 337 312 321 340 311 263 250 257 229 196 215 174 144 217 223 262
321 323 328 330 330 327 329 287 315 354 323 10 3 345 321 328 336 328 31 326 31 17 320 293 287 312 317 331 306 308 307 262 229 273 267 226 254 211 203 208 198 204 227 237
317 321 327 328 325 321 312 307 2 13 322 335 321 309 308 319 327 340 329 254 231 177 276 314 320 299 307 321 346 304 296 276 263 265 267 277 277 211 194 207 212 199 223 184
315 320 325 324 322 324 242 311 13 354 293 304 319 314 310 309 307 345 311 322 15 345 260 300 286 254 281 265 327 310 302 282 308 287 285 281 299 293 194 197 210 222 234 224
313 318 320 320 317 344 285 23 46 94 276 307 312 300 327 312 312 309 316 311 306 278 268 249 253 254 248 244 223 270 290 318 323 298 323 297 298 245 273 207 194 210 215 217
313 316 315 314 305 262 273 337 107 158 263 259 286 297 303 303 302 300 300 297 295 318 317 313 296 268 255 247 239 184 274 290 277 279 11 199 256 339 315 236 201 225 232 172
317 318 315 308 293 278 256 172 147 161 257 253 282 288 320 314 304 292 295 312 253 271 298 299 283 297 273 241 223 198 255 269 292 293 336 313 287 1 349 323 46 14 13 353
318 315 310 302 290 275 265 206 141 154 247 236 255 338 297 287 332 320 340 356 329 48 300 320 327 301 323 332 328 198 211 256 296 339 294 211 357 345 334 319 59 11 18 25
317 314 309 303 297 280 255 220 169 142 215 262 236 235 284 304 337 306 308 346 340 44 321 292 30 305 303 344 328 262 187 200 252 259 295 3 341 335 353 53 28 11 11 19
315 314 312 309 302 293 270 219 178 156 205 270 229 251 262 279 261 295 333 333 342 2 5 359 337 339 322 22 32 358 17 289 170 274 31 317 345 360 38 348 66 49 1 19
317 316 316 311 308 295 255 225 175 171 175 278 322 269 263 254 266 286 299 256 327 37 351 7 316 298 290 12 13 331 50 38 339 320 293 306 336 334 321 356 2 358 25 15
318 318 318 319 313 294 209 113 115 91 357 287 265 297 28 219 238 245 259 286 5 348 324 295 312 338 10 357 14 358 348 30 40 338 331 354 325 312 354 335 348 334 347 355
324 328 325 326 329 204 146 138 153 93 106 323 358 56 56 30 26 22 352 302 354 315 313 314 344 6 29 335 329 294 31 15 336 301 320 342 295 315 328 325 331 332 337 322
329 332 332 329 58 166 185 119 180 239 66 337 323 321 71 40 31 24 32 35 29 15 1 356 354 345 351 329 247 21 14 356 321 295 303 287 276 292 301 308 310 313 318 322
335 337 350 87 112 144 187 123 60 126 19 250 345 88 28 33 52 41 46 45 49 33 10 357 6 1 7 348 333 351 337 313 292 286 274 273 272 277 279 278 275 282 297 301
340 359 66 80 157 242 317 46 128 141 126 300 274 18 63 10 49 61 27 20 42 31 62 36 354 337 17 3 281 312 313 330 320 303 280 272 263 255 253 249 253 244 269 297
345 34 47 47 86 107 128 98 123 160 133 166 308 300 198 139 68 52 356 64 18 47 7 51 13 352 32 266 279 332 330 338 341 338 328 302 264 281 282 264 247 256 258 266
159 301 315 264 224 251 72 132 178 226 259 310 241 212 330 156 112 86 91 24 55 93 271 226 139 164 60 310 5 354 343 2 341 336 354 353 310 284 281 260 252 248 244 248
151 241 227 211 74 123 141 156 214 201 202 199 220 130 217 177 141 188 156 182 193 216 222 134 142 299 333 347 13 4 353 2 349 354 4 356 357 326 305 256 247 253 244 243
219 229 285 76 148 207 211 255 225 141 270 181 214 195 281 201 184 188 208 172 166 236 135 276 61 321 354 348 7 16 8 12 5 1 8 10 5 1 358 305 247 257 256 231
296 279 127 145 203 227 275 307 272 212 246 197 204 175 205 134 127 152 195 234 180 87 121 55 359 355 339 341 358 8 14 6 14 9 12 10 13 12 17 17 22 31 27 12
266 214 226 154 230 23 104 273 289 314 327 332 310 73 70 148 190 210 226 345 63 85 57 344 21 344 336 340 348 6 5 7 19 13 24 16 16 17 18 23 20 36 39 32
239 237 332 205 352 280 26 13 349 345 329 310 308 145 180 202 199 356 36 28 37 52 25 348 310 329 324 338 347 358 357 12 16 28 17 38 32 24 20 17 23 32 33 29
256 275 290 10 12 19 21 14 353 336 313 316 318 248 57 40 42 32 22 49 27 55 310 253 281 307 315 343 348 348 350 10 358 51 39 41 44 42 32 22 22 30 31 29
271 253 17 15 25 7 11 10 357 337 325 337 22 48 51 49 41 38 25 51 352 316 255 257 53 351 321 346 344 334 339 350 4 357 69 64 61 61 59 44 30 27 33 34
289 8 35 338 51 16 16 24 358 337 350 1 15 20 4 161 54 50 57 6 14 2 350 35 108 326 321 350 334 328 333 356 359 356 3 56 98 149 93 78 68 57 40 33